sat.trackr.live / text

‹ back to catalog

STARLINK-1802

NORAD 46702 · 2020-073AJ

PAYLOAD ACTIVE UNKNOWN

§ Identity

Operator
Country
US
Launch date
2020-10-18
Launch site
AFETR
Launch vehicle
Mass (kg)
RCS (m²)

Purposes: comms

External: N2YO · Heavens-Above · Gunter

§ Orbital elements

Epoch: 2026-05-24T21:58:34.421952Z

Period
93.72 min
Inclination
53.1570°
Eccentricity
0.0004021
Mean motion
15.36525193 rev/d
Perigee alt
453.6 km
Apogee alt
459.1 km
Semi-major
6,834.5 km
B*
1.0958e-3
RAAN
221.4147°
Arg perigee
339.7304°
Mean anomaly
20.3539°
Rev number
30,917

§ Raw data

STARLINK-18021 46702U 20073AJ  26144.91567618  .00039458  00000+0  10958-2 0  99942 46702  53.1570 221.4147 0004021 339.7304  20.3539 15.36525193309171

JSON: /api/v1/satellites/46702 · /tle

For live sub-satellite position, see the globe view (requires WebGL).

§ Visibility from observer

Set your observer location to see the next 7 days of passes ≥ 10°. The values pass through the URL so the page stays shareable.

No JS? Fill the form by hand. The geolocation button needs JavaScript.